Regional Weather Roundup
Issued by NWS Sioux Falls, SD

Home | Current Version | Previous Version | Graphics & Text | Print | Product List | Glossary Off
Versions: 1 2 3 4 5 6 7 8 9 10 11 12 13 14 15 16 17 18 19 20 21 22 23 24 25 26 27 28 29 30 31 32 33 34 35 36 37 38 39 40 41 42 43 44 45 46 47 48 49 50

000
ASUS43 KFSD 220902
RWRFSD

WEATHER ROUNDUP FOR SE SOUTH DAKOTA/SW MINNESOTA/NW IOWA
NATIONAL WEATHER SERVICE SIOUX FALLS SD
300 AM CST WED FEB 22 2017

NOTE: "FAIR" INDICATES FEW OR NO CLOUDS BELOW 12,000 FEET WITH NO
SIGNIFICANT WEATHER AND OR OBSTRUCTIONS TO VISIBILITY.


SDZ038>040-050-052>070-221000-
SOUTHEAST SOUTH DAKOTA

CITY           SKY/WX    TMP DP  RH WIND       PRES   REMARKS
BROOKINGS      CLOUDY    41  37  86 SE3       29.59F
CHAMBERLAIN    PTCLDY    45  39  78 W5        29.65S
HURON          CLOUDY    40  39  97 S3        29.60S
MADISON        FAIR      46  41  81 E5        29.62S
MITCHELL       PTCLDY    41  35  79 S7        29.62S
SIOUX FALLS    PTCLDY    40  37  89 S6        29.63R
WINNER         FAIR      47  35  63 SW10      29.66S
YANKTON        CLEAR     54  34  47 W12       29.65S
$$

MNZ071-072-080-081-089-090-097-098-221000-
SOUTHWEST MINNESOTA

CITY           SKY/WX    TMP DP  RH WIND       PRES   REMARKS
FAIRMONT       CLOUDY    41  37  86 S10       29.62F
JACKSON        CLOUDY    41  34  75 S10       29.60F
LUVERNE        PTCLDY    37  32  81 S3        29.63S
MARSHALL       CLEAR     44  40  85 S7        29.60F
MONTEVIDEO     MOCLDY    41  41 100 S8        29.58F
PIPESTONE      MOCLDY    46  36  66 SE7       29.61F
REDWOOD FALLS  CLOUDY    45  40  82 SE10      29.61F
TRACY          CLEAR     43  38  83 CALM      29.61F
WINDOM         CLOUDY    48  37  66 NW9       29.63R
WORTHINGTON    PTCLDY    44  35  70 S10       29.62F
$$

IAZ001>003-012>014-020>022-031-032-NEZ013-014-SDZ071-221000-
NORTHWEST IOWA

CITY           SKY/WX    TMP DP  RH WIND       PRES   REMARKS
CHEROKEE       CLEAR     46  35  64 S8        29.66S
DENISON        CLEAR     46  36  66 S10       29.68F
ESTHERVILLE    CLEAR     40  36  86 S10       29.62F
LE MARS        CLEAR     41  34  75 S7        29.66S
ORANGE CITY    CLEAR     43  36  75 S5        29.64S
SHELDON        CLOUDY    39  37  93 S9        29.63F
SIOUX CITY     CLEAR     41  34  76 E7        29.67S
SPENCER        CLEAR     37  33  85 S7        29.64F
STORM LAKE     CLEAR     48  36  61 SW14      29.66F
$$

ABBREVIATIONS USED IN REMARKS
   TC - TEMPERATURE IN CELSIUS
  WCI - WIND CHILL INDEX
   HX - HEAT INDEX
  VSB - VISIBILITY





USA.gov is the U.S. government's official web portal to all federal, state and local government web resources and services.